Time,TemperatureF,DewpointF,PressureIn,WindDirection,WindDirectionDegrees,WindSpeedMPH,WindSpeedGustMPH,Humidity,HourlyPrecipIn,Conditions,Clouds,dailyrainin,SoftwareType,DateUTC
2013-07-12 11:55:00,81.2,57.2,29.96,SSW,194,1.0,1.0,44,0.00,,SCT031,0.00,VWS V14.01,2013-07-12 15:55:00,
2013-07-12 11:56:00,81.4,56.1,29.96,SSW,196,2.0,4.0,42,0.00,,SCT031,0.00,VWS V14.01,2013-07-12 15:56:00,
2013-07-12 12:01:00,81.6,55.0,29.95,SSE,166,0.0,4.0,40,0.00,,SCT031,0.00,VWS V14.01,2013-07-12 16:01:00,
2013-07-12 12:06:00,81.9,53.8,29.95,East,101,1.0,5.0,38,0.00,,SCT030,0.00,VWS V14.01,2013-07-12 16:06:00,
2013-07-12 12:11:00,81.9,56.6,29.96,WNW,292,1.0,5.0,42,0.00,,SCT030,0.00,VWS V14.01,2013-07-12 16:11:00,
2013-07-12 12:16:00,82.1,57.4,29.96,West,260,1.0,5.0,43,0.00,,SCT030,0.00,VWS V14.01,2013-07-12 16:16:00,
2013-07-12 12:21:00,82.3,57.6,29.95,West,263,1.0,5.0,43,0.00,,SCT030,0.00,VWS V14.01,2013-07-12 16:21:00,
2013-07-12 12:26:00,82.5,59.7,29.95,SSW,212,1.0,7.0,46,0.00,,SCT030,0.00,VWS V14.01,2013-07-12 16:26:00,
2013-07-12 12:31:00,82.2,58.1,29.95,WNW,294,2.0,3.0,44,0.00,,SCT030,0.00,VWS V14.01,2013-07-12 16:31:00,
2013-07-12 12:36:00,82.3,56.9,29.95,West,271,2.0,4.0,42,0.00,,SCT030,0.00,VWS V14.01,2013-07-12 16:36:00,
2013-07-12 12:41:00,82.8,58.0,29.95,NNW,338,0.0,4.0,43,0.00,,SCT030,0.00,VWS V14.01,2013-07-12 16:41:00,
2013-07-12 12:46:00,83.4,56.6,29.95,SW,228,2.0,4.0,40,0.00,,SCT030,0.00,VWS V14.01,2013-07-12 16:46:00,
2013-07-12 12:51:00,82.8,59.3,29.95,East,98,1.0,6.0,45,0.00,,SCT030,0.00,VWS V14.01,2013-07-12 16:51:00,
2013-07-12 12:56:00,82.6,62.7,29.95,SSE,160,3.0,8.0,51,0.00,,SCT030,0.00,VWS V14.01,2013-07-12 16:56:00,
2013-07-12 13:01:00,82.6,62.1,29.95,SE,130,1.0,2.0,50,0.00,,SCT030,0.00,VWS V14.01,2013-07-12 17:01:00,
2013-07-12 13:06:00,82.6,62.7,29.94,WSW,240,1.0,4.0,51,0.00,,SCT030,0.00,VWS V14.01,2013-07-12 17:06:00,
2013-07-12 13:11:00,82.8,62.8,29.94,South,183,1.0,4.0,51,0.00,,SCT030,0.00,VWS V14.01,2013-07-12 17:11:00,
2013-07-12 13:16:00,82.8,63.9,29.94,North,5,1.0,4.0,53,0.00,,SCT030,0.00,VWS V14.01,2013-07-12 17:16:00,
2013-07-12 13:21:00,81.8,62.5,29.94,NNW,331,0.0,4.0,52,0.00,,SCT030,0.00,VWS V14.01,2013-07-12 17:21:00,
2013-07-12 13:27:00,81.6,61.2,29.94,ENE,69,2.0,4.0,50,0.00,,SCT030,0.00,VWS V14.01,2013-07-12 17:27:00,
2013-07-12 13:32:00,82.0,61.5,29.94,NNW,342,2.0,3.0,50,0.00,,SCT030,0.00,VWS V14.01,2013-07-12 17:32:00,
2013-07-12 13:37:00,82.1,60.5,29.94,West,266,0.0,4.0,48,0.00,,SCT030,0.00,VWS V14.01,2013-07-12 17:37:00,
2013-07-12 13:42:00,82.4,63.0,29.94,SSW,209,2.0,4.0,52,0.00,,SCT030,0.00,VWS V14.01,2013-07-12 17:42:00,
2013-07-12 13:47:00,82.5,63.1,29.93,NW,316,2.0,5.0,52,0.00,,SCT030,0.00,VWS V14.01,2013-07-12 17:47:00,
2013-07-12 13:52:00,81.9,62.6,29.93,WNW,288,1.0,7.0,52,0.00,,SCT030,0.00,VWS V14.01,2013-07-12 17:52:00,
2013-07-12 13:57:00,81.3,61.5,29.93,SSW,200,1.0,7.0,51,0.00,,SCT030,0.00,VWS V14.01,2013-07-12 17:57:00,
2013-07-12 14:02:00,81.2,60.2,29.93,SSW,198,1.0,6.0,49,0.00,,SCT030,0.00,VWS V14.01,2013-07-12 18:02:00,
2013-07-12 14:07:00,81.3,59.8,29.93,SSW,208,2.0,6.0,48,0.00,,SCT030,0.00,VWS V14.01,2013-07-12 18:07:00,
2013-07-12 14:12:00,80.7,59.2,29.93,WNW,291,0.0,6.0,48,0.00,,SCT030,0.00,VWS V14.01,2013-07-12 18:12:00,
2013-07-12 14:17:00,80.4,55.2,29.93,South,170,2.0,6.0,42,0.00,,SCT030,0.00,VWS V14.01,2013-07-12 18:17:00,
2013-07-12 14:22:00,80.4,55.9,29.93,SSW,207,0.0,6.0,43,0.00,,SCT030,0.00,VWS V14.01,2013-07-12 18:22:00,
2013-07-12 14:27:00,80.5,56.6,29.94,SW,230,1.0,6.0,44,0.00,,SCT030,0.00,VWS V14.01,2013-07-12 18:27:00,
2013-07-12 14:32:00,80.7,58.0,29.93,SSE,147,0.0,2.0,46,0.00,,SCT030,0.00,VWS V14.01,2013-07-12 18:32:00,
2013-07-12 14:37:00,80.9,60.0,29.93,SSW,193,1.0,4.0,49,0.00,,SCT030,0.00,VWS V14.01,2013-07-12 18:37:00,
2013-07-12 14:42:00,80.9,57.6,29.93,SSW,205,0.0,6.0,45,0.00,,SCT030,0.00,VWS V14.01,2013-07-12 18:42:00,
2013-07-12 14:47:00,80.8,58.7,29.94,West,281,0.0,6.0,47,0.00,,SCT030,0.00,VWS V14.01,2013-07-12 18:47:00,
2013-07-12 14:52:00,81.0,55.8,29.94,SSE,160,2.0,6.0,42,0.00,,SCT030,0.00,VWS V14.01,2013-07-12 18:52:00,
2013-07-12 14:57:00,81.3,59.8,29.93,WSW,248,1.0,6.0,48,0.00,,SCT030,0.00,VWS V14.01,2013-07-12 18:57:00,
2013-07-12 15:02:00,81.0,58.3,29.93,SW,223,0.0,2.0,46,0.00,,SCT030,0.00,VWS V14.01,2013-07-12 19:02:00,
2013-07-12 15:08:00,80.8,56.9,29.94,South,184,0.0,3.0,44,0.00,,SCT030,0.00,VWS V14.01,2013-07-12 19:08:00,
2013-07-12 15:13:00,81.1,55.9,29.93,South,190,2.0,3.0,42,0.00,,SCT030,0.00,VWS V14.01,2013-07-12 19:13:00,
2013-07-12 15:18:00,80.7,52.8,29.93,South,176,0.0,6.0,38,0.00,,SCT030,0.00,VWS V14.01,2013-07-12 19:18:00,
2013-07-12 15:23:00,80.4,52.5,29.93,NNE,19,0.0,6.0,38,0.00,,SCT030,0.00,VWS V14.01,2013-07-12 19:23:00,
2013-07-12 15:28:00,80.2,53.7,29.93,South,172,0.0,6.0,40,0.00,,SCT030,0.00,VWS V14.01,2013-07-12 19:28:00,
2013-07-12 15:33:00,80.0,52.8,29.93,SSE,158,1.0,2.0,39,0.00,,SCT030,0.00,VWS V14.01,2013-07-12 19:33:00,
2013-07-12 15:38:00,79.5,50.2,29.93,South,180,1.0,6.0,36,0.00,,SCT030,0.00,VWS V14.01,2013-07-12 19:38:00,
2013-07-12 15:43:00,79.0,45.8,29.93,SSW,203,1.0,6.0,31,0.00,,SCT030,0.00,VWS V14.01,2013-07-12 19:43:00,
2013-07-12 15:48:00,78.7,45.6,29.92,South,172,0.0,6.0,31,0.00,,SCT030,0.00,VWS V14.01,2013-07-12 19:48:00,
2013-07-12 15:53:00,78.5,43.6,29.93,SW,232,0.0,6.0,29,0.00,,SCT030,0.00,VWS V14.01,2013-07-12 19:53:00,
2013-07-12 15:58:00,78.3,38.6,29.93,SW,215,0.0,6.0,24,0.00,,SCT030,0.00,VWS V14.01,2013-07-12 19:58:00,
2013-07-12 16:03:00,78.0,40.4,29.93,SSW,200,0.0,1.0,26,0.00,,SCT030,0.00,VWS V14.01,2013-07-12 20:03:00,
2013-07-12 16:08:00,77.8,39.2,29.93,West,269,0.0,2.0,25,0.00,,SCT030,0.00,VWS V14.01,2013-07-12 20:08:00,
2013-07-12 16:13:00,77.4,40.8,29.93,West,270,0.0,2.0,27,0.00,,SCT030,0.00,VWS V14.01,2013-07-12 20:13:00,
2013-07-12 16:18:00,77.4,33.2,29.93,West,269,0.0,2.0,20,0.00,,SCT030,0.00,VWS V14.01,2013-07-12 20:18:00,
2013-07-12 16:24:00,77.2,37.7,29.93,West,269,0.0,2.0,24,0.00,,SCT030,0.00,VWS V14.01,2013-07-12 20:24:00,
2013-07-12 16:29:00,77.2,31.8,29.93,West,269,0.0,2.0,19,0.00,,SCT030,0.00,VWS V14.01,2013-07-12 20:29:00,
2013-07-12 16:34:00,77.0,34.1,29.93,West,269,0.0,1.0,21,0.00,,SCT030,0.00,VWS V14.01,2013-07-12 20:34:00,
2013-07-12 16:39:00,76.9,31.5,29.93,West,269,0.0,1.0,19,0.00,,SCT030,0.00,VWS V14.01,2013-07-12 20:39:00,
2013-07-12 16:44:00,76.7,33.9,29.93,West,273,0.0,1.0,21,0.00,,SCT030,0.00,VWS V14.01,2013-07-12 20:44:00,
2013-07-12 16:49:00,76.6,32.6,29.93,West,270,0.0,1.0,20,0.00,,SCT030,0.00,VWS V14.01,2013-07-12 20:49:00,
2013-07-12 16:54:00,76.4,29.8,29.92,WNW,288,0.0,1.0,18,0.00,,SCT030,0.00,VWS V14.01,2013-07-12 20:54:00,
2013-07-12 16:59:00,76.2,26.8,29.93,WNW,288,0.0,1.0,16,0.00,,SCT030,0.00,VWS V14.01,2013-07-12 20:59:00,
2013-07-12 17:04:00,75.9,21.6,29.93,SW,236,0.0,1.0,13,0.00,,SCT030,0.00,VWS V14.01,2013-07-12 21:04:00,
2013-07-12 17:09:00,75.8,7.4,29.93,SW,235,0.0,1.0,7,0.00,,SCT030,0.00,VWS V14.01,2013-07-12 21:09:00,
2013-07-12 17:14:00,75.6,10.2,29.93,SW,235,0.0,1.0,8,0.00,,SCT030,0.00,VWS V14.01,2013-07-12 21:14:00,
2013-07-12 17:19:00,75.4,-10.8,29.93,SW,235,0.0,1.0,3,0.00,,SCT030,0.00,VWS V14.01,2013-07-12 21:19:00,
2013-07-12 17:24:00,75.3,0.0,29.94,SW,235,0.0,1.0,0,0.00,,SCT030,0.00,VWS V14.01,2013-07-12 21:24:00,
2013-07-12 17:29:00,75.2,0.0,29.95,SW,235,0.0,1.0,0,0.00,,SCT030,0.00,VWS V14.01,2013-07-12 21:29:00,
2013-07-12 17:34:00,75.2,0.0,29.95,SW,235,0.0,0.0,0,0.00,,SCT030,0.00,VWS V14.01,2013-07-12 21:34:00,
2013-07-12 17:39:00,74.9,0.0,29.95,SW,235,0.0,1.0,0,0.00,,SCT030,0.00,VWS V14.01,2013-07-12 21:39:00,
2013-07-12 17:44:00,74.8,0.0,29.95,SW,235,0.0,1.0,0,0.00,,SCT030,0.00,VWS V14.01,2013-07-12 21:44:00,
2013-07-12 17:49:00,74.7,0.0,29.95,SW,235,0.0,1.0,0,0.00,,SCT030,0.00,VWS V14.01,2013-07-12 21:49:00,
2013-07-12 17:54:00,74.8,0.0,29.96,SW,235,0.0,1.0,0,0.00,,SCT030,0.00,VWS V14.01,2013-07-12 21:54:00,
2013-07-12 17:59:00,74.8,0.0,29.96,SW,236,0.0,1.0,0,0.00,,SCT030,0.00,VWS V14.01,2013-07-12 21:59:00,
2013-07-12 18:04:00,74.6,0.0,29.96,SW,235,0.0,0.0,0,0.00,,SCT030,0.00,VWS V14.01,2013-07-12 22:04:00,
2013-07-12 18:09:00,74.6,0.0,29.96,SW,235,0.0,0.0,0,0.00,,SCT030,0.00,VWS V14.01,2013-07-12 22:09:00,
2013-07-12 18:14:00,74.6,0.0,29.96,SW,236,0.0,1.0,0,0.00,,SCT030,0.00,VWS V14.01,2013-07-12 22:14:00,
2013-07-12 18:19:00,74.7,0.0,29.96,SW,235,0.0,1.0,0,0.00,,SCT030,0.00,VWS V14.01,2013-07-12 22:19:00,
2013-07-12 18:24:00,74.7,0.0,29.96,SSW,197,0.0,4.0,0,0.00,,SCT030,0.00,VWS V14.01,2013-07-12 22:24:00,
2013-07-12 18:29:00,74.7,0.0,29.96,SW,217,0.0,4.0,0,0.00,,SCT030,0.00,VWS V14.01,2013-07-12 22:29:00,
2013-07-12 18:35:00,74.6,-32.2,29.95,West,262,0.0,1.0,1,0.00,,SCT030,0.00,VWS V14.01,2013-07-12 22:35:00,
2013-07-12 18:40:00,74.6,-32.2,29.96,West,274,0.0,1.0,1,0.00,,SCT030,0.00,VWS V14.01,2013-07-12 22:40:00,
2013-07-12 18:45:00,74.5,0.0,29.96,WSW,244,0.0,1.0,0,0.00,,SCT030,0.00,VWS V14.01,2013-07-12 22:45:00,
2013-07-12 18:50:00,74.4,0.0,29.96,WSW,243,0.0,1.0,0,0.00,,SCT030,0.00,VWS V14.01,2013-07-12 22:50:00,
2013-07-12 18:55:00,74.3,-32.3,29.97,WSW,253,0.0,1.0,1,0.00,,SCT030,0.00,VWS V14.01,2013-07-12 22:55:00,
2013-07-12 19:00:00,74.2,-32.4,29.98,WNW,293,0.0,0.0,1,0.00,,SCT030,0.00,VWS V14.01,2013-07-12 23:00:00,
2013-07-12 19:05:00,74.2,-32.4,29.97,SW,221,0.0,1.0,1,0.00,,SCT030,0.00,VWS V14.01,2013-07-12 23:05:00,
2013-07-12 19:11:00,74.1,-32.5,29.96,SW,229,0.0,1.0,1,0.00,,SCT030,0.00,VWS V14.01,2013-07-12 23:11:00,
2013-07-12 19:16:00,74.0,-19.6,29.96,SW,230,0.0,1.0,2,0.00,,SCT030,0.00,VWS V14.01,2013-07-12 23:16:00,
2013-07-12 19:21:00,74.0,0.0,29.96,SW,229,0.0,1.0,0,0.00,,SCT030,0.00,VWS V14.01,2013-07-12 23:21:00,
2013-07-12 19:26:00,73.9,0.0,29.97,SSW,202,0.0,1.0,0,0.00,,SCT030,0.00,VWS V14.01,2013-07-12 23:26:00,
2013-07-12 19:31:00,74.0,0.0,29.97,SSW,203,0.0,0.0,0,0.00,,SCT030,0.00,VWS V14.01,2013-07-12 23:31:00,
2013-07-12 19:36:00,73.9,0.0,29.97,SSW,203,0.0,0.0,0,0.00,,SCT030,0.00,VWS V14.01,2013-07-12 23:36:00,
2013-07-12 19:41:00,73.9,0.0,29.98,SSW,203,0.0,0.0,0,0.00,,SCT030,0.00,VWS V14.01,2013-07-12 23:41:00,
2013-07-12 19:46:00,73.7,0.0,29.98,SSE,164,0.0,1.0,0,0.00,,SCT030,0.00,VWS V14.01,2013-07-12 23:46:00,
2013-07-12 19:51:00,73.7,0.0,29.98,SSE,150,0.0,1.0,0,0.00,,SCT030,0.00,VWS V14.01,2013-07-12 23:51:00,
2013-07-12 19:56:00,73.6,0.0,29.98,SSE,149,0.0,1.0,0,0.00,,SCT030,0.00,VWS V14.01,2013-07-12 23:56:00,
2013-07-12 20:02:00,73.5,0.0,29.99,SSE,149,0.0,0.0,0,0.00,,SCT030,0.00,VWS V14.01,2013-07-13 00:02:00,
2013-07-12 20:07:00,73.3,0.0,29.99,SSE,167,0.0,0.0,0,0.00,,SCT030,0.00,VWS V14.01,2013-07-13 00:07:00,
2013-07-12 20:12:00,73.3,0.0,29.98,WSW,254,0.0,1.0,0,0.00,,SCT030,0.00,VWS V14.01,2013-07-13 00:12:00,
2013-07-12 20:17:00,73.2,0.0,29.98,WSW,256,0.0,1.0,0,0.00,,SCT030,0.00,VWS V14.01,2013-07-13 00:17:00,
2013-07-12 20:22:00,73.1,0.0,29.98,WSW,252,0.0,1.0,0,0.00,,SCT030,0.00,VWS V14.01,2013-07-13 00:22:00,
2013-07-12 20:27:00,72.9,0.0,29.98,NW,311,0.0,1.0,0,0.00,,SCT030,0.00,VWS V14.01,2013-07-13 00:27:00,
2013-07-12 20:32:00,72.8,0.0,29.98,NW,311,0.0,1.0,0,0.00,,SCT030,0.00,VWS V14.01,2013-07-13 00:32:00,
2013-07-12 20:37:00,72.7,0.0,29.98,SSW,205,0.0,1.0,0,0.00,,SCT030,0.00,VWS V14.01,2013-07-13 00:37:00,
2013-07-12 20:42:00,72.5,0.0,29.98,SSW,206,0.0,1.0,0,0.00,,SCT030,0.00,VWS V14.01,2013-07-13 00:42:00,
2013-07-12 20:47:00,72.4,0.0,29.98,SSW,205,0.0,1.0,0,0.00,,SCT030,0.00,VWS V14.01,2013-07-13 00:47:00,
2013-07-12 20:52:00,72.2,0.0,29.98,NE,52,0.0,2.0,0,0.00,,SCT030,0.00,VWS V14.01,2013-07-13 00:52:00,
2013-07-12 20:57:00,72.1,0.0,29.98,SSW,212,0.0,2.0,0,0.00,,SCT030,0.00,VWS V14.01,2013-07-13 00:57:00,
2013-07-12 21:02:00,72.1,0.0,29.98,SW,226,0.0,1.0,0,0.00,,SCT030,0.00,VWS V14.01,2013-07-13 01:02:00,
2013-07-12 21:07:00,72.0,0.0,29.99,South,172,0.0,4.0,0,0.00,,SCT030,0.00,VWS V14.01,2013-07-13 01:07:00,
2013-07-12 21:12:00,71.9,0.0,29.99,SW,221,0.0,4.0,0,0.00,,SCT030,0.00,VWS V14.01,2013-07-13 01:12:00,
2013-07-12 21:17:00,71.9,0.0,30.00,SW,220,0.0,4.0,0,0.00,,SCT030,0.00,VWS V14.01,2013-07-13 01:17:00,
2013-07-12 21:23:00,71.8,0.0,30.00,ENE,68,0.0,4.0,0,0.00,,SCT030,0.00,VWS V14.01,2013-07-13 01:23:00,
2013-07-12 21:28:00,71.8,0.0,30.00,ENE,68,0.0,4.0,0,0.00,,SCT030,0.00,VWS V14.01,2013-07-13 01:28:00,
2013-07-12 21:33:00,71.7,0.0,30.01,ENE,68,0.0,1.0,0,0.00,,SCT030,0.00,VWS V14.01,2013-07-13 01:33:00,
2013-07-12 21:38:00,71.6,0.0,30.01,ENE,68,0.0,1.0,0,0.00,,SCT030,0.00,VWS V14.01,2013-07-13 01:38:00,
2013-07-12 21:43:00,71.5,0.0,30.02,ENE,68,0.0,1.0,0,0.00,,SCT030,0.00,VWS V14.01,2013-07-13 01:43:00,
2013-07-12 21:48:00,71.4,0.0,30.02,ENE,68,0.0,1.0,0,0.00,,SCT030,0.00,VWS V14.01,2013-07-13 01:48:00,
2013-07-12 21:53:00,71.2,0.0,30.02,ENE,68,0.0,1.0,0,0.00,,SCT030,0.00,VWS V14.01,2013-07-13 01:53:00,
2013-07-12 21:58:00,71.3,0.0,30.02,ENE,68,0.0,1.0,0,0.00,,SCT030,0.00,VWS V14.01,2013-07-13 01:58:00,
2013-07-12 22:03:00,71.0,0.0,30.02,ENE,63,0.0,1.0,0,0.00,,SCT030,0.00,VWS V14.01,2013-07-13 02:03:00,
2013-07-12 22:08:00,70.5,0.0,30.01,ENE,67,0.0,1.0,0,0.00,,SCT030,0.00,VWS V14.01,2013-07-13 02:08:00,
2013-07-12 22:13:00,70.3,0.0,30.01,ENE,61,0.0,1.0,0,0.00,,SCT030,0.00,VWS V14.01,2013-07-13 02:13:00,
2013-07-12 22:18:00,70.1,0.0,30.02,WNW,294,0.0,1.0,0,0.00,,SCT030,0.00,VWS V14.01,2013-07-13 02:18:00,
2013-07-12 22:23:00,70.1,0.0,30.02,WNW,293,0.0,1.0,0,0.00,,SCT030,0.00,VWS V14.01,2013-07-13 02:23:00,
2013-07-12 22:28:00,70.0,0.0,30.02,WNW,293,0.0,1.0,0,0.00,,SCT030,0.00,VWS V14.01,2013-07-13 02:28:00,
2013-07-12 22:34:00,70.0,0.0,30.02,ENE,67,0.0,1.0,0,0.00,,SCT030,0.00,VWS V14.01,2013-07-13 02:34:00,
2013-07-12 22:39:00,70.1,0.0,30.03,SE,139,0.0,2.0,0,0.00,,SCT030,0.00,VWS V14.01,2013-07-13 02:39:00,
2013-07-12 22:44:00,70.0,0.0,30.03,SE,139,0.0,2.0,0,0.00,,SCT030,0.00,VWS V14.01,2013-07-13 02:44:00,
2013-07-12 22:49:00,69.9,0.0,30.04,SE,139,0.0,2.0,0,0.00,,SCT030,0.00,VWS V14.01,2013-07-13 02:49:00,
2013-07-12 22:54:00,69.6,0.0,30.04,SE,139,0.0,2.0,0,0.00,,SCT030,0.00,VWS V14.01,2013-07-13 02:54:00,
2013-07-12 23:00:00,69.3,0.0,30.04,SE,139,0.0,2.0,0,0.01,,SCT030,0.01,VWS V14.01,2013-07-13 03:00:00,
2013-07-12 23:05:00,69.2,0.0,30.05,SE,139,0.0,0.0,0,0.01,,SCT030,0.01,VWS V14.01,2013-07-13 03:05:00,
2013-07-12 23:10:00,69.2,0.0,30.05,SE,135,0.0,0.0,0,0.01,,SCT030,0.01,VWS V14.01,2013-07-13 03:10:00,
2013-07-12 23:15:00,69.0,0.0,30.05,ENE,58,0.0,1.0,0,0.01,,SCT030,0.01,VWS V14.01,2013-07-13 03:15:00,
2013-07-12 23:20:00,68.9,0.0,30.05,ENE,60,0.0,1.0,0,0.01,,SCT030,0.01,VWS V14.01,2013-07-13 03:20:00,
2013-07-12 23:25:00,68.8,0.0,30.05,ENE,59,0.0,1.0,0,0.01,,SCT030,0.01,VWS V14.01,2013-07-13 03:25:00,
2013-07-12 23:30:00,68.8,0.0,30.05,ENE,60,0.0,0.0,0,0.01,,SCT030,0.01,VWS V14.01,2013-07-13 03:30:00,
2013-07-12 23:36:00,68.6,0.0,30.05,ENE,60,0.0,0.0,0,0.01,,SCT030,0.01,VWS V14.01,2013-07-13 03:36:00,
2013-07-12 23:41:00,68.6,0.0,30.05,ENE,60,0.0,0.0,0,0.01,,SCT030,0.01,VWS V14.01,2013-07-13 03:41:00,
2013-07-12 23:46:00,68.5,0.0,30.05,ENE,60,0.0,0.0,0,0.01,,SCT030,0.01,VWS V14.01,2013-07-13 03:46:00,
2013-07-12 23:51:00,68.5,0.0,30.06,ENE,60,0.0,0.0,0,0.01,,SCT030,0.01,VWS V14.01,2013-07-13 03:51:00,
2013-07-12 23:56:00,68.4,0.0,30.06,ENE,60,0.0,0.0,0,0.01,,SCT030,0.01,VWS V14.01,2013-07-13 03:56:00,